Showing default

QIANFAN-51, 62252

Orbit data source: Space-Track

QIANFAN-51, 62252 is a Chinese payload satellite in LEO that was launched on Thu, 05 Dec 2024 UTC via a CHANG ZHENG 6A launch vehicle from the Taiyaun Space Center, China (TSC). Payload-class satellites include a variety of spacecraft equipped with specific instruments for various scientific and technological missions. These include communications satellites like Starlink; space stations such as the ISS; scientific satellites like the Hubble; Earth observation satellites from companies like Planet Labs, Umbra, and HawkEye 360; GPS; miniature CubeSats for education and research; and military/defense satellites.

Loading next visibility...
Identifier
62252, 2024-232R
Orbit
LEO
Country
Flag of CNCN / PRC
Related business
Manufacturer
SECM
Mission
Operational Commercial Communications
Bus & Motor
QIANFAN, Unknown motor
Mass
267 kg wet, ~267 kg dry
Launch date (UTC)
2024-12-05 (1 year ago)
Launch vehicle
CHANG ZHENG 6A
Launch site
Taiyaun Space Center, China (TSC)
Object type
Payload
Rocket body
Debris
Shape & HBR
Box + 1 Pan, 5.0 m
Radar Cross Section
13.200 m², Large (>1 m²)

Expand to show TLE details & history
Last TLE update: 6 hours ago

TLE from 6 hours ago
0 QIANFAN-51
1 62252U 24232R   26035.17478285  .00000027  00000-0  22905-4 0  9999
2 62252  89.0009  35.8387 0014870  51.0826 309.1649 13.50984189 75070
Epoch: 2026-02-04T04:11Z
TLE epoch observation values (Epoch: 2026-02-04T04:11:41.238Z)
Latitude
0.00005°
Longitude
-161.42827°
Altitude
1,064.608 km
Speed
7.323 km/s
True Right ascension
02h 23m 21s
True Declination
0° 00' 00"
Sunlit
Object was in daylight at epoch
Visualization orbit readout
Latitude
Unknown
Longitude
Unknown
Altitude
Unknown
Speed
Unknown
Apparent Right ascension
Unknown
Apparent Declination
Unknown
Sunlit
N/A
Visualization observer readout
Local Sidereal Time
12:23:31
Azimuth
Unknown
Elevation
Unknown
Doppler factor
Unknown
Orbital elements
Apogee altitude
1,076.76 km
Perigee altitude
1,054.622 km
Semi-major axis
7,443.828 km
Eccentricity
0.00149
Inclination
89.0009°
RAAN
35.8387°
Arg. of periapsis
51.0826°
True anomaly
309.03263°
Mean anomaly
309.1649°
Eccentric anomaly
309.09878°
Mean motion
3.37947 °/min
Orbital period
106.53 mins
BSTAR
0.000022905
Loading maneuver chart data...
Computing Atmospheric mass density...
Loading historical data...
Loading historical data...
Loading historical data...
Loading historical data...
Loading historical data...
Loading historical data...
Loading historical data...

Documentation

Showing up to 5 results
|